Skip Page Navigation
NASA JPL Caltech
NASA Logo - Jet Propulsion Laboratory + View the NASA Portal
+ Center for Near-Earth Object Studies
JPL Home Earth Solar System Stars & Galaxies Technology
JPL Solar System Dynamics
BODIES ORBITS EPHEMERIDES TOOLS PHYSICAL DATA DISCOVERY FAQ SITE MAP
IMPORTANT: The SSD Announcement email list is now available. Major changes are coming in the near future, including possible hostname and/or URL changes. To be notified of such changes, subscribe to this email list.

Please visit this page for more details.


JPL Small-Body Database Browser
Search: [ help ]  
48083 (2001 FO36)
Classification: Main-belt Asteroid          SPK-ID: 2048083
Ephemeris | Orbit Diagram | Orbital Elements | Mission Design | Physical Parameters | Discovery Circumstances ]

[ show orbit diagram ]
Orbital Elements at Epoch 2458600.5 (2019-Apr-27.0) TDB
Reference: JPL 18 (heliocentric ecliptic J2000)
 Element Value Uncertainty (1-sigma)   Units 
e .1276371792145681 7.3598e-08  
a 2.428742411126387 1.2774e-08 au
q 2.118744580731426 1.835e-07 au
i 1.915804852561158 5.2911e-06 deg
node 213.8170691625981 0.00014955 deg
peri 331.3880457387153 0.00015058 deg
M 275.2590204935016 1.9217e-05 deg
tp 2458925.933000668182
(2020-Mar-17.43300067)
7.4804e-05 TDB
period 1382.517418642316
3.79
1.0907e-05
2.986e-08
d
yr
n .2603945492083084 2.0543e-09 deg/d
Q 2.738740241521348 1.4404e-08 au
  Orbit Determination Parameters
   # obs. used (total)      463  
   data-arc span      9951 days (27.24 yr)  
   first obs. used      1991-09-14  
   last obs. used      2018-12-12  
   planetary ephem.      DE431  
   SB-pert. ephem.      SB431-N16  
   condition code      0  
   norm. resid. RMS      .58462  
   source      ORB  
   producer      Otto Matic  
   solution date      2019-Jul-13 02:44:58  

Additional Information
 Earth MOID = 1.12098 au 
 Jupiter MOID = 2.22274 au 
 T_jup = 3.497 
[ show covariance matrix ]

Ephemeris | Orbit Diagram | Orbital Elements | Mission Design | Physical Parameters | Discovery Circumstances ]

Physical Parameter Table
Parameter Symbol Value Units Sigma Reference Notes
absolute magnitude H 16.1   n/a MPO417150  

48083 (2001 FO36)          Discovered 2001-Mar-18 by LINEAR at Socorro
Reference: 20020921/Numbers.arcLast Updated: 2004-04-19

Alternate Designations
 2001 FO36 = 1995 SE26 = 1999 VU207 
Ephemeris | Orbit Diagram | Orbital Elements | Mission Design | Physical Parameters | Discovery Circumstances ]
ABOUT SSD CREDITS/AWARDS PRIVACY/COPYRIGHT GLOSSARY LINKS
FirstGov
(server date/time)  
NASA Home Page
Site Manager:   Ryan S. Park
Webmaster  Alan B. Chamberlin